Date String (YYYY-MM-DD hh:mm:ss) UTC,Instrument flags,Ambient pressure (hPa),Sample flow (lpm),Bypass flow (lpm),Sample temperature (°C),Ambient temperature (°C),ASC tube jacket temperature (°C),LED temperature (°C),Box temperature (°C),Sample RH (%),Span deviation,Mass concentration (μg/m³),Mass concentration (μg/m³),Mass concentration (μg/m³)
DateTimeUTC,F1_M11,P_M11,Q1_M11,Q2_M11,T1_M11,T2_M11,T3_M11,T4_M11,T5_M11,U1_M11,ZSPAN_M11,X0_M11,X2_M11,X1_M11
2022-03-25 06:00:00,,0826.5,5.00,0.00,27.7,26.9,00.0,36.7,29.4,10.7,0000.0,0011.90,0003.94,0001.65
2022-03-25 06:01:00,,0826.5,5.01,0.00,27.7,26.9,00.0,36.7,29.4,10.6,0000.0,0011.96,0003.85,0001.66
2022-03-25 06:02:00,,0826.5,4.98,0.00,27.7,26.9,00.0,36.7,29.5,10.6,0000.0,0011.77,0003.87,0001.67
2022-03-25 06:03:00,,0826.5,5.00,0.00,27.7,26.9,00.0,36.7,29.4,10.5,0000.0,0011.72,0003.91,0001.67
2022-03-25 06:04:00,,0826.6,5.02,0.00,27.7,26.9,00.0,36.7,29.5,10.5,0000.0,0011.92,0003.96,0001.68
2022-03-25 06:05:00,,0826.6,5.00,0.00,27.7,26.9,00.0,36.7,29.4,10.5,0000.0,0011.87,0003.93,0001.66
2022-03-25 06:06:00,,0826.6,5.00,0.00,27.7,26.8,00.0,36.7,29.5,10.5,0000.0,0011.95,0003.95,0001.65
2022-03-25 06:07:00,,0826.6,5.02,0.00,27.7,26.8,00.0,36.7,29.5,10.6,0000.0,0011.63,0003.95,0001.66
2022-03-25 06:08:00,,0826.7,4.99,0.00,27.7,26.8,00.0,36.7,29.4,10.7,0000.0,0011.51,0003.96,0001.65
2022-03-25 06:09:00,,0826.7,4.99,0.00,27.7,26.8,00.0,36.7,29.4,10.7,0000.0,0010.56,0003.98,0001.64
2022-03-25 06:10:00,,0826.6,4.99,0.00,27.7,26.8,00.0,36.7,29.4,10.6,0000.0,0010.66,0004.00,0001.63
2022-03-25 06:11:00,,0826.6,5.01,0.00,27.7,26.8,00.0,36.7,29.4,10.7,0000.0,0010.51,0003.96,0001.64
2022-03-25 06:12:00,,0826.7,5.00,0.00,27.7,26.7,00.0,36.7,29.4,10.7,0000.0,0010.25,0003.99,0001.64
2022-03-25 06:13:00,,0826.7,4.99,0.00,27.7,26.8,00.0,36.7,29.4,10.7,0000.0,0010.15,0004.02,0001.64
2022-03-25 06:14:00,,0826.7,5.01,0.00,27.7,26.8,00.0,36.7,29.4,10.6,0000.0,0010.14,0004.02,0001.63
2022-03-25 06:15:00,,0826.7,5.01,0.00,27.7,26.8,00.0,36.7,29.4,10.7,0000.0,0010.19,0004.02,0001.63
2022-03-25 06:16:00,,0826.7,4.99,0.00,27.7,26.8,00.0,36.7,29.5,10.8,0000.0,0010.70,0004.04,0001.62
2022-03-25 06:17:00,,0826.7,4.99,0.00,27.7,26.8,00.0,36.7,29.5,10.9,0000.0,0010.92,0004.04,0001.64
2022-03-25 06:18:00,,0826.7,5.01,0.00,27.7,26.9,00.0,36.7,29.5,10.8,0000.0,0011.19,0004.03,0001.65
2022-03-25 06:19:00,,0826.7,5.01,0.00,27.7,26.9,00.0,36.7,29.5,10.7,0000.0,0011.34,0004.06,0001.67
2022-03-25 06:20:00,,0826.7,4.99,0.00,27.7,26.9,00.0,36.7,29.5,10.7,0000.0,0011.14,0004.07,0001.68
2022-03-25 06:21:00,,0826.8,4.99,0.00,27.7,26.9,00.0,36.7,29.5,10.6,0000.0,0011.57,0004.06,0001.68
2022-03-25 06:22:00,,0826.8,5.02,0.00,27.7,26.9,00.0,36.7,29.5,10.5,0000.0,0012.28,0004.06,0001.66
2022-03-25 06:23:00,,0826.8,4.99,0.00,27.7,26.9,00.0,36.7,29.5,10.5,0000.0,0013.02,0004.11,0001.67
2022-03-25 06:24:00,,0826.8,5.00,0.00,27.7,26.9,00.0,36.7,29.5,10.4,0000.0,0012.98,0004.10,0001.66
2022-03-25 06:25:00,,0826.8,4.99,0.00,27.7,26.9,00.0,36.7,29.5,10.4,0000.0,0012.88,0004.08,0001.68
2022-03-25 06:26:00,,0826.8,5.00,0.00,27.7,26.9,00.0,36.7,29.5,10.4,0000.0,0013.09,0004.08,0001.68
2022-03-25 06:27:00,,0826.8,4.99,0.00,27.7,26.9,00.0,36.7,29.5,10.5,0000.0,0012.69,0004.07,0001.69
2022-03-25 06:28:00,,0826.8,5.00,0.00,27.8,26.9,00.0,36.7,29.5,10.5,0000.0,0012.47,0004.08,0001.70
2022-03-25 06:29:00,,0826.7,5.01,0.00,27.8,27.0,00.0,36.7,29.5,10.5,0000.0,0012.44,0004.10,0001.69
2022-03-25 06:30:00,,0826.8,5.02,0.00,27.8,27.0,00.0,36.7,29.6,10.4,0000.0,0012.13,0004.05,0001.66
2022-03-25 06:31:00,,0826.8,5.00,0.00,27.8,27.0,00.0,36.7,29.6,10.4,0000.0,0012.04,0004.02,0001.66
2022-03-25 06:32:00,,0826.9,5.00,0.00,27.8,27.0,00.0,36.7,29.6,10.3,0000.0,0011.59,0003.96,0001.64
2022-03-25 06:33:00,,0827.0,5.00,0.00,27.8,27.0,00.0,36.7,29.6,10.2,0000.0,0010.91,0003.89,0001.63
2022-03-25 06:34:00,,0827.0,5.00,0.00,27.8,27.0,00.0,36.8,29.6,10.2,0000.0,0010.65,0003.75,0001.62
2022-03-25 06:35:00,,0826.9,5.01,0.00,27.8,27.0,00.0,36.8,29.6,10.2,0000.0,0010.46,0003.68,0001.61
2022-03-25 06:36:00,,0826.9,5.00,0.00,27.8,27.0,00.0,36.8,29.7,10.2,0000.0,0010.34,0003.62,0001.59
2022-03-25 06:37:00,,0827.0,4.99,0.00,27.8,27.0,00.0,36.8,29.6,10.1,0000.0,0010.28,0003.67,0001.60
2022-03-25 06:38:00,,0827.0,5.00,0.00,27.9,27.0,00.0,36.8,29.6,10.1,0000.0,0010.12,0003.69,0001.61
2022-03-25 06:39:00,,0827.0,5.00,0.00,27.9,27.1,00.0,36.8,29.7,10.1,0000.0,0010.25,0003.75,0001.63
2022-03-25 06:40:00,,0827.0,5.01,0.00,27.9,27.0,00.0,36.8,29.7,10.1,0000.0,0010.01,0003.75,0001.63
2022-03-25 06:41:00,,0827.1,5.00,0.00,27.9,27.0,00.0,36.8,29.7,10.1,0000.0,0009.82,0003.72,0001.64
2022-03-25 06:42:00,,0827.1,4.99,0.00,27.9,27.0,00.0,36.8,29.7,10.1,0000.0,0009.78,0003.70,0001.63
2022-03-25 06:43:00,,0827.1,4.99,0.00,27.9,27.1,00.0,36.8,29.7,10.1,0000.0,0009.66,0003.67,0001.64
2022-03-25 06:44:00,,0827.1,5.02,0.00,27.9,27.0,00.0,36.8,29.7,10.0,0000.0,0009.48,0003.70,0001.66
2022-03-25 06:45:00,,0827.2,5.01,0.00,27.9,27.0,00.0,36.8,29.7,10.0,0000.0,0008.96,0003.76,0001.66
2022-03-25 06:46:00,,0827.2,4.99,0.00,27.9,27.1,00.0,36.8,29.7,10.0,0000.0,0009.26,0003.82,0001.66
2022-03-25 06:47:00,,0827.3,5.01,0.00,27.9,27.1,00.0,36.8,29.7,10.0,0000.0,0009.35,0003.85,0001.68
2022-03-25 06:48:00,,0827.6,5.00,0.00,27.9,27.1,00.0,36.8,29.6,10.0,0000.0,0009.49,0003.87,0001.67
2022-03-25 06:49:00,,0827.7,4.99,0.00,27.9,27.0,00.0,36.8,29.7,10.1,0000.0,0009.47,0003.87,0001.64
2022-03-25 06:50:00,,0827.5,5.00,0.00,27.9,27.0,00.0,36.8,29.7,10.1,0000.0,0009.42,0003.86,0001.61
2022-03-25 06:51:00,,0827.2,5.02,0.00,27.9,27.0,00.0,36.8,29.7,10.1,0000.0,0009.37,0003.86,0001.62
2022-03-25 06:52:00,,0827.1,5.00,0.00,27.9,27.0,00.0,36.8,29.7,10.1,0000.0,0009.53,0003.89,0001.62
2022-03-25 06:53:00,,0827.5,4.99,0.00,27.9,27.0,00.0,36.9,29.7,10.1,0000.0,0009.61,0003.88,0001.63
2022-03-25 06:54:00,,0827.6,5.02,0.00,27.9,27.0,00.0,36.9,29.7,10.1,0000.0,0009.78,0003.93,0001.62
2022-03-25 06:55:00,,0827.6,4.99,0.00,27.9,27.1,00.0,36.9,29.7,10.1,0000.0,0009.85,0003.97,0001.60
2022-03-25 06:56:00,,0827.8,4.99,0.00,27.9,27.0,00.0,36.9,29.7,10.1,0000.0,0010.04,0004.00,0001.61
2022-03-25 06:57:00,,0827.6,5.02,0.00,27.9,27.0,00.0,36.9,29.7,10.0,0000.0,0009.97,0004.01,0001.61
2022-03-25 06:58:00,,0827.8,4.99,0.00,27.9,27.0,00.0,36.9,29.7,10.0,0000.0,0010.12,0004.04,0001.60
2022-03-25 06:59:00,,0827.3,4.99,0.00,27.9,27.0,00.0,36.9,29.7,10.0,0000.0,0009.85,0003.98,0001.60
